Regional Weather Roundup
Issued by NWS

Home | Current Version | Previous Version | Graphics & Text | Print | Product List | Glossary On
Versions: 1 2 3 4 5 6 7 8 9 10 11 12 13 14 15 16 17 18 19 20 21 22 23 24 25 26 27 28 29 30 31 32 33 34 35 36 37 38 39 40 41 42 43 44 45 46 47 48 49 50
235
ASUS45 KPSR 270510
RWRAZ

ARIZONA HOURLY REGIONAL WEATHER ROUNDUP
NATIONAL WEATHER SERVICE PHOENIX AZ
1000 PM MST SUN MAR 26 2017

NOTE: FAIR INDICATES FEW OR NO CLOUDS BELOW 12,000 FEET WITH NO
SIGNIFICANT WEATHER AND/OR OBSTRUCTIONS TO VISIBILITY.

AZZ001>003-036-270600-
NORTHWEST ARIZONA

CITY           SKY/WX    TMP DP  RH WIND       PRES   REMARKS
BULLHEAD CITY  MOCLDY    73  30  20 S3        29.86S
KINGMAN        PTCLDY    54  20  26 S9        29.97F
$$

AZZ004>008-015-016-018-270600-
NORTH CENTRAL ARIZONA

CITY           SKY/WX    TMP DP  RH WIND       PRES   REMARKS
GRAND CANYON   MOCLDY    34  30  85 CALM      30.08R
WILLIAMS       CLEAR     45  27  49 SW7       30.09S
PRESCOTT       CLEAR     49  28  44 S7        30.05S
FLAGSTAFF      PTCLDY    39  27  62 CALM      30.09S
PAYSON         CLEAR     50  28  43 E6        30.09S
PAGE           CLEAR     57  35  43 SW5       29.97R
$$

AZZ009>014-017-270600-
NORTHEAST ARIZONA

CITY           SKY/WX    TMP DP  RH WIND       PRES   REMARKS
WINSLOW        PTCLDY    51  25  36 SW9       30.03R
SAINT JOHNS    PTCLDY    48  23  37 SW7       30.05R
WINDOW ROCK    MOCLDY    41  29  62 NE3       30.07R
SHOW LOW       CLEAR     41  23  48 S7        30.11R
$$

AZZ023-270600-
GREATER PHOENIX AREA

CITY           SKY/WX    TMP DP  RH WIND       PRES   REMARKS
PHOENIX        MOCLDY    72  33  24 CALM      29.89S
BUCKEYE        CLEAR     63  32  31 NE5       29.91S
LUKE AFB       CLEAR     65  38  37 NW3       29.89S
DEER VALLEY    CLEAR     61  36  39 CALM      29.91S
SCOTTSDALE     CLEAR     69  34  27 NE3       29.93R
MESA-GATEWAY   CLEAR     64  30  27 E5        29.92S
$$

AZZ027-028-270600-
SOUTHWEST MARICOPA COUNTY AND PINAL COUNTY

CITY           SKY/WX    TMP DP  RH WIND       PRES   REMARKS
CASA GRANDE    NOT AVBL
GILA BEND      FAIR      65  23  20 S7        29.89S
$$

AZZ503-504-507>509-270600-
SOUTHEAST ARIZONA

CITY           SKY/WX    TMP DP  RH WIND       PRES   REMARKS
TUCSON         CLEAR     64  23  21 SW5       29.98R
DAVIS-MONTHAN  CLEAR     60  25  26 S6        29.97R
NOGALES        CLEAR     55  26  32 E6        30.02S
SIERRA VISTA   CLEAR     55  24  30 W10       30.07R
DOUGLAS        CLEAR     54  23  30 N6        30.03R
SAFFORD        CLEAR     58  23  26 NW9       29.97R
$$

AZZ020-021-025-026-031-270600-
SOUTHWEST ARIZONA

CITY           SKY/WX    TMP DP  RH WIND       PRES   REMARKS
YUMA           CLEAR     70  41  34 W8        29.89R
$$

CAZ031-033-041-043-047-048-061-270600-
SOUTHERN CALIFORNIA

CITY           SKY/WX    TMP DP  RH WIND       PRES   REMARKS
DOWNTOWN L.A.  CLEAR     60  53  77 CALM      30.04R
L.A. AIRPORT   PTCLDY    59  52  77 W15       30.04S
SAN DIEGO      MOCLDY    61  52  72 NW7       30.07R
BURBANK        CLEAR     58  48  69 CALM      30.03R
ONTARIO        PTCLDY    56  51  84 SW8       30.04R
RIVERSIDE      CLEAR     57  53  86 W7        30.04R
PALM SPRINGS   CLEAR     70  48  45 NW21      29.91S
EL CENTRO NAS  CLEAR     69  42  37 W14       29.90S
IMPERIAL       CLEAR     67  46  47 W12       29.88S
BLYTHE         CLEAR     72  35  25 W5        29.87S
NEEDLES        MOCLDY    73  29  19 W9        29.87S
$$

NVZ020-UTZ003-270600-
SOUTHERN NEVADA-UTAH

CITY           SKY/WX    TMP DP  RH WIND       PRES   REMARKS
LAS VEGAS      PTCLDY    68  28  22 SW5       29.88R
SALT LAKE CITY MOCLDY    51  32  48 SE7       29.93F
$$

NMZ009-TXZ055-270600-
NEW MEXICO-WEST TEXAS

CITY           SKY/WX    TMP DP  RH WIND       PRES   REMARKS
ALBUQUERQUE    MOCLDY    53  24  32 W6        30.02R
EL PASO        PTCLDY    67  18  15 W14       29.96S
$$


........................KEY........................
SKY/WX - SKY CONDITION/WEATHER
TMP    - TEMPERATURE IN FAHRENHEIT
DP     - DEW POINT IN FAHRENHEIT
RH     - RELATIVE HUMIDITY IN PERCENT
WIND   - DIRECTION AND SPEED IN MILES PER HOUR (MPH)
VRB    - VARIABLE WIND DIRECTION
PRES   - MEAN SEA LEVEL PRESSURE IN INCHES OF MERCURY
         F - FALLING PRESSURE   R - RISING PRESSURE
         S - STEADY PRESSURE
VSB    - VISIBILITY IN MILES
HX     - HEAT INDEX IN FAHRENHEIT
WCI    - WIND CHILL INDEX IN FAHRENHEIT
TC     - TEMPERATURE IN CELSIUS WHICH IS ALSO KNOWN AS
         TEMPERATURE IN CENTIGRADE
AFB    - AIR FORCE BASE
         LUKE AFB IS LUKE AIR FORCE BASE
         DAVIS-MONTHAN IS DAVIS-MONTHAN AIR FORCE BASE
NAS    - NAVAL AIR STATION
         EL CENTRO NAS IS EL CENTRO NAVAL AIR STATION
N/A    - NOT AVAILABLE





USA.gov is the U.S. government's official web portal to all federal, state and local government web resources and services.